Location: Marcé
(47.5801°N, 0.3280°W)
Time: 21:13:09
(UTC+01:00)

Vanguard 3 - Pass Details

Date: 13 December 2021
Orbit: 508 x 3260 km, 33.3° (Epoch: 17 January)

Event Time Altitude Azimuth Distance (km) Brightness Sun altitude
Rises 09:31:16 0° 276° (W) 7,201 11.5 5.7°
Reaches altitude 10° 09:40:13 10° 255° (WSW) 5,906 11.3 6.8°
Maximum altitude 09:47:02 13° 233° (SW) 5,230 11.3 7.6°
Drops below altitude 10° 09:53:03 10° 209° (SSW) 5,062 11.5 8.2°
Sets 09:59:28 0° 185° (S) 5,456 12.1 8.9°
